Vertical_Velocity
-6 -1 -2 4 -0 0 6 5 1 3 -2 -0 -3 9 8 3 31 -4 5 14 10 -4 -0 0 2 6 1 6 6 6 10 -0 32 -2 -5 3 -3 10 0 -14 16 -4 5 -5
-3 1 5 5 -5 9 11 2 10 6 4 -1 5 25 10 -1 -9 28 8 24 46 22 -15 1 -2 2 10 7 8 -1 -6 5 15 5 8 2 5 18 -4 6 40 16 21 21
-3 1 -2 4 5 1 -1 -2 -0 -6 -9 13 15 20 9 2 5 -0 18 -5 28 16 -1 6 -5 2 1 7 3 6 4 4 -2 -5 -1 8 8 8 3 6 17 11 7 15
-0 2 -0 1 -3 -4 -5 1 7 5 11 5 3 5 2 0 9 5 -3 -4 -6 6 23 1 -7 -0 10 4 5 3 3 24 5 6 -3 4 2 4 2 4 4 -2 4 8
0 -3 0 1 10 14 1 1 -3 -0 -3 9 5 4 -11 -18 -8 16 76 -1 -5 -8 18 1 2 74 1 -2 1 -1 30 8 8 -1 5 6 -0 -3 -8 -1 -1 4 -2 6
1 1 -1 -1 -0 -2 2 0 -0 3 -1 -6 8 2 2 -3 -4 3 -14 12 81 -17 38 -4 -3 -11 1 1 11 4 4 5 5 7 -3 6 2 8 2 5 9 -4 11 16
-1 -2 2 -3 0 2 10 -5 5 -3 1 7 1 -0 4 -3 5 6 1 -15 17 24 1 3 -5 71 -4 -4 1 -4 -8 2 -0 -2 0 3 1 -1 8 6 8 8 4 5
-1 -2 1 -1 -2 -1 1 -3 -3 -1 -1 4 6 1 2 1 -3 1 2 1 -7 17 8 6 -0 -2 13 -1 0 1 8 10 1 4 6 0 5 2 7 0 -2 7 9 2
-5 -3 -2 -0 -1 1 -1 -2 0 2 1 5 7 11 12 4 1 -1 -3 6 1 -1 5 1 -4 -1 -7 -3 -4 -5 3 3 6 0 2 -8 -5 8 1 -2 1 2 -0 -3
-4 -0 -2 -1 -1 -1 -1 -2 -1 3 0 6 1 5 7 -1 17 2 12 -1 -3 4 0 -2 -1 3 5 -6 3 2 1 -2 -4 -0 3 2 6 3 -3 -4 0 -8 -1 1
1 -1 -3 0 -3 -0 -3 -2 -1 0 2 -0 -1 2 2 -2 5 19 0 5 10 4 -4 -1 2 1 -4 0 0 -2 3 1 -1 2 -0 4 -2 -2 -1 1 6 -6 0 -5
-5 -2 0 -5 1 -1 2 -0 0 -3 -1 1 1 0 -1 4 -3 1 9 4 3 25 3 -0 -1 1 3 2 -1 -2 -1 -2 -2 -4 -1 3 4 7 -1 -2 -3 -7 -7 -8
-3 -3 -1 -4 -2 -1 0 -1 -3 2 -0 -1 0 3 1 -0 1 -2 -1 1 10 17 2 1 -4 -7 4 4 3 0 -1 -3 -1 -1 -2 -5 -1 -1 -3 -4 -5 -4 -4 0
-4 -3 -3 -3 -3 -2 -1 1 -1 1 2 0 -2 1 4 2 4 3 -3 -1 -1 2 2 1 5 8 -3 -5 -3 0 2 3 -1 -2 -1 -4 -2 -2 7 -11 -7 -2 2 1
-3 -5 -2 -2 0 0 0 -0 -0 1 1 1 -0 -2 -1 -0 0 2 3 4 -0 -2 -3 -4 -2 0 -2 -3 -1 2 -4 -1 2 1 2 5 6 2 -4 -1 -2 1 9 2
-4 -3 -3 -1 1 -0 2 1 -2 -1 1 1 2 1 -0 -1 -3 -2 0 1 2 3 1 -2 -3 -5 -2 -2 -2 -2 -2 -1 -3 -2 -2 0 2 2 3 -1 2 4 1 2
-5 -2 -2 -3 1 -0 1 3 2 -0 -3 1 -0 -1 1 1 3 -0 -3 -3 -1 -1 0 -0 -1 -2 -1 -4 -4 -1 0 -0 -1 2 2 -4 -4 1 -2 -3 -5 -5 -0 -2
-3 -3 -2 -1 0 1 1 2 2 2 -2 2 -1 -0 2 -0 -1 3 1 -3 -5 -4 -3 -2 -1 1 -2 -3 -3 -0 -0 -0 -0 0 1 1 4 -1 -1 -1 -3 -0 0 -1
-2 -2 -3 -2 -1 1 1 1 2 1 2 1 -1 -0 -1 0 0 -0 0 -1 -0 -0 -2 -3 -1 0 1 -1 -2 -3 -3 -2 0 2 3 3 2 3 1 -3 2 1 -2 -3
-2 -2 -2 -2 -0 1 -0 1 1 1 2 0 2 1 1 3 -4 -3 -4 -1 -1 1 1 -0 -0 0 -0 -2 -1 -2 0 0 -0 -1 -4 -3 1 0 1 -2 -2 1 -2 2
-2 -1 -1 -1 0 1 1 2 2 2 3 0 2 0 -0 0 1 2 -5 -3 -2 -1 -2 -0 1 1 1 -0 1 -1 2 -2 -1 0 -1 1 1 0 -2 1 4 4 3 9
-1 -0 -1 -2 0 1 1 1 1 0 2 -0 0 -0 1 -0 -4 -5 -1 0 -2 -0 0 2 4 -0 -1 3 1 1 4 1 6 7 2 6 4 2 -2 -4 -4 -2 1 3
-1 -0 -0 -2 1 0 0 1 1 2 1 0 0 1 -3 -6 -4 -4 0 -3 -2 -1 0 0 2 1 0 3 1 1 2 2 3 5 2 10 0 0 1 0 2 0 0 2
-0 -0 0 -2 1 1 1 0 0 2 1 1 1 -0 -1 -2 -2 -4 -4 -4 -1 1 3 2 1 3 2 1 1 -0 1 2 1 1 2 3 1 1 1 4 7 7 4 3
0 -0 -0 -1 1 2 1 2 0 0 1 2 1 1 -2 -1 -3 -1 -3 -3 0 3 1 3 4 2 1 3 2 1 3 3 2 0 0 1 2 2 2 2 2 2 3 2
1 -0 0 -1 -0 1 1 2 1 1 2 2 1 -2 -1 -2 -2 -0 -1 2 -1 1 -0 2 2 1 0 1 2 2 2 1 1 2 3 2 1 1 1 1 1 1 2 1
1 1 1 -0 -1 1 1 2 0 2 1 -1 1 -0 -3 -1 0 -1 2 2 1 1 2 3 4 1 0 -0 1 3 4 3 3 3 2 3 3 3 3 3 3 3 4 3
Height
5506 5499 5493 5484 5473 5465 5461 5449 5439 5431 5422 5416 5409 5404 5400 5397 5400 5400 5407 5422 5433 5445 5456 5468 5485 5505 5526 5546 5564 5579 5596 5610 5619 5629 5636 5645 5655 5665 5672 5680 5688 5699 5704 5712
5510 5503 5497 5488 5480 5473 5464 5454 5445 5437 5432 5422 5416 5412 5412 5409 5409 5415 5421 5432 5446 5456 5464 5475 5490 5511 5529 5547 5563 5582 5593 5606 5616 5620 5633 5640 5648 5656 5668 5674 5681 5690 5695 5705
5510 5505 5499 5492 5485 5477 5469 5460 5450 5442 5437 5432 5428 5426 5425 5424 5427 5433 5435 5439 5450 5462 5474 5484 5499 5516 5529 5546 5562 5573 5588 5604 5615 5621 5628 5633 5644 5652 5659 5670 5676 5683 5692 5700
5512 5507 5501 5497 5488 5481 5475 5468 5461 5453 5448 5442 5438 5439 5439 5438 5439 5444 5449 5452 5461 5467 5481 5491 5508 5523 5535 5547 5562 5575 5586 5597 5607 5613 5625 5630 5637 5648 5656 5663 5672 5680 5686 5692
5511 5507 5504 5497 5492 5486 5481 5474 5468 5464 5459 5455 5450 5449 5451 5453 5452 5452 5448 5463 5471 5478 5487 5499 5515 5523 5536 5547 5561 5574 5588 5596 5602 5609 5617 5625 5633 5643 5651 5661 5667 5673 5679 5687
5511 5508 5504 5501 5496 5491 5487 5480 5476 5472 5468 5463 5462 5460 5461 5461 5461 5463 5465 5468 5475 5489 5499 5506 5517 5528 5537 5547 5560 5571 5580 5587 5597 5604 5613 5622 5632 5641 5647 5655 5663 5669 5675 5682
5510 5509 5507 5503 5499 5496 5495 5491 5481 5477 5475 5472 5468 5467 5466 5470 5471 5473 5476 5478 5480 5489 5501 5510 5524 5532 5538 5549 5558 5567 5578 5588 5596 5604 5611 5619 5629 5639 5645 5651 5658 5664 5669 5673
5510 5508 5508 5505 5503 5501 5497 5493 5488 5483 5480 5479 5475 5475 5474 5474 5477 5479 5484 5490 5495 5495 5504 5513 5526 5531 5534 5548 5557 5566 5577 5584 5593 5602 5607 5616 5624 5633 5640 5649 5655 5660 5664 5669
5508 5505 5506 5504 5503 5501 5498 5496 5494 5490 5487 5485 5485 5484 5483 5482 5483 5487 5491 5495 5500 5505 5512 5520 5526 5532 5541 5549 5558 5567 5573 5582 5592 5600 5607 5614 5621 5628 5635 5645 5653 5657 5661 5666
5504 5503 5502 5501 5501 5501 5500 5498 5497 5495 5494 5492 5491 5489 5490 5491 5490 5492 5496 5500 5505 5510 5515 5523 5528 5534 5541 5550 5557 5566 5571 5578 5587 5595 5604 5612 5619 5627 5633 5640 5648 5653 5658 5663
5497 5498 5497 5497 5498 5499 5499 5499 5498 5497 5497 5496 5496 5496 5495 5497 5498 5500 5503 5506 5511 5514 5519 5523 5528 5534 5542 5549 5558 5565 5572 5579 5586 5592 5601 5610 5615 5622 5629 5636 5641 5647 5653 5658
5489 5488 5489 5490 5492 5494 5496 5497 5498 5499 5498 5499 5500 5500 5499 5501 5503 5505 5507 5511 5513 5516 5520 5526 5529 5535 5541 5547 5554 5562 5569 5576 5584 5591 5598 5606 5611 5617 5624 5630 5636 5641 5646 5653
5480 5476 5476 5480 5484 5488 5490 5494 5495 5497 5498 5500 5501 5503 5504 5505 5507 5509 5511 5513 5516 5517 5522 5526 5530 5536 5541 5545 5550 5557 5564 5571 5578 5585 5592 5600 5605 5612 5618 5624 5629 5635 5640 5645
5474 5471 5470 5469 5476 5481 5485 5489 5493 5495 5497 5498 5501 5503 5505 5507 5509 5511 5514 5517 5519 5521 5524 5527 5531 5533 5539 5544 5548 5552 5557 5564 5571 5578 5585 5591 5597 5603 5610 5616 5620 5626 5630 5635
5468 5465 5463 5463 5467 5474 5480 5484 5488 5491 5494 5496 5499 5501 5504 5507 5509 5511 5514 5516 5519 5522 5525 5528 5530 5533 5536 5540 5544 5549 5553 5558 5564 5570 5576 5582 5589 5594 5601 5607 5610 5616 5621 5623
5463 5458 5455 5455 5459 5468 5474 5479 5484 5487 5490 5494 5497 5500 5503 5505 5508 5511 5513 5515 5517 5520 5523 5525 5528 5530 5533 5537 5540 5544 5549 5553 5559 5565 5570 5575 5581 5586 5591 5597 5602 5608 5612 5616
5459 5455 5453 5451 5455 5463 5469 5474 5479 5484 5487 5490 5494 5497 5500 5503 5505 5507 5509 5511 5514 5516 5518 5521 5523 5525 5528 5531 5535 5539 5543 5548 5553 5558 5563 5569 5574 5580 5585 5591 5596 5600 5604 5609
5457 5454 5452 5451 5454 5460 5465 5470 5475 5480 5484 5487 5490 5494 5496 5499 5502 5504 5506 5507 5508 5510 5512 5514 5517 5520 5523 5526 5529 5534 5538 5543 5547 5552 5557 5563 5568 5573 5578 5583 5588 5593 5596 5600
5454 5452 5451 5451 5454 5458 5463 5468 5472 5477 5481 5484 5487 5490 5493 5495 5497 5499 5501 5502 5503 5505 5506 5508 5511 5514 5519 5522 5524 5528 5532 5537 5542 5547 5551 5556 5561 5566 5571 5576 5581 5586 5589 5593
5451 5450 5449 5449 5452 5457 5462 5465 5469 5473 5477 5481 5485 5487 5489 5490 5493 5494 5495 5497 5498 5500 5502 5505 5507 5510 5514 5517 5520 5524 5528 5532 5537 5541 5546 5552 5556 5560 5566 5571 5576 5580 5583 5587
5448 5447 5447 5448 5451 5456 5460 5462 5466 5469 5473 5478 5480 5482 5484 5487 5488 5490 5491 5492 5493 5495 5497 5499 5502 5505 5509 5512 5515 5520 5524 5529 5533 5536 5541 5546 5551 5557 5562 5567 5570 5573 5577 5580
5446 5445 5445 5448 5450 5454 5458 5460 5463 5466 5469 5473 5476 5479 5480 5482 5484 5485 5485 5486 5487 5488 5490 5493 5496 5500 5504 5507 5511 5515 5519 5524 5528 5532 5536 5542 5546 5551 5556 5560 5564 5568 5571 5573
5443 5442 5443 5446 5448 5452 5455 5458 5460 5463 5466 5470 5473 5474 5477 5479 5480 5481 5481 5480 5480 5481 5484 5488 5491 5495 5499 5503 5507 5511 5515 5520 5523 5527 5532 5536 5541 5546 5549 5552 5556 5559 5562 5565
5439 5439 5440 5442 5444 5448 5451 5454 5457 5460 5462 5465 5468 5471 5473 5475 5476 5477 5477 5476 5475 5476 5479 5482 5487 5491 5495 5499 5503 5507 5511 5516 5520 5524 5528 5532 5536 5540 5544 5547 5549 5552 5555 5558
5434 5434 5436 5438 5440 5443 5447 5450 5453 5455 5458 5460 5463 5467 5470 5472 5473 5474 5474 5474 5473 5473 5474 5477 5482 5487 5491 5495 5499 5503 5507 5512 5516 5520 5523 5527 5531 5535 5538 5541 5544 5547 5549 5551
5428 5429 5431 5433 5435 5438 5442 5445 5448 5451 5453 5455 5459 5462 5465 5467 5469 5471 5472 5472 5471 5471 5472 5474 5478 5483 5488 5492 5496 5500 5503 5507 5511 5515 5518 5522 5525 5528 5531 5534 5537 5540 5543 5545
5421 5422 5425 5427 5430 5433 5436 5440 5443 5445 5447 5451 5454 5457 5460 5463 5466 5468 5469 5470 5471 5472 5472 5474 5476 5480 5484 5488 5492 5496 5499 5503 5506 5510 5513 5517 5520 5523 5526 5529 5533 5536 5538 5541